Temp
-11 -11 -10 -10 -10 -11 -11 -11 -11 -11 -11 -11 -11 -10 -11 -11 -11 -12 -12 -11 -11 -11 -12 -12 -12 -12 -12 -12 -13 -13 -13 -13 -13 -13 -13 -13 -13 -13 -13 -12 -12 -12 -12 -13 -13 -13 -13 -13 -13 -14 -14 -14 -14 -14 -14 -13 -13 -13 -14 -14 -14 -14
-11 -11 -10 -10 -11 -11 -11 -11 -11 -11 -11 -11 -11 -11 -11 -11 -12 -12 -12 -11 -11 -12 -12 -12 -12 -12 -12 -13 -13 -13 -13 -13 -13 -13 -13 -13 -13 -13 -13 -13 -12 -12 -12 -13 -13 -13 -13 -13 -13 -14 -14 -14 -14 -14 -14 -14 -14 -14 -14 -14 -14 -14
-11 -11 -11 -10 -11 -12 -12 -12 -11 -11 -11 -11 -11 -11 -11 -12 -12 -12 -12 -12 -12 -12 -12 -12 -12 -12 -12 -13 -13 -13 -13 -13 -13 -13 -13 -13 -13 -13 -13 -13 -13 -13 -13 -13 -13 -13 -13 -13 -13 -14 -14 -14 -14 -14 -14 -14 -14 -14 -14 -14 -14 -14
-11 -11 -11 -11 -12 -12 -12 -12 -11 -11 -11 -11 -11 -11 -12 -12 -12 -12 -12 -12 -12 -12 -12 -12 -12 -12 -12 -13 -12 -13 -13 -13 -13 -13 -13 -13 -13 -13 -13 -13 -13 -13 -13 -13 -13 -13 -13 -13 -13 -13 -13 -14 -14 -14 -14 -14 -14 -14 -14 -14 -14 -14
-12 -11 -11 -11 -12 -12 -12 -11 -11 -11 -11 -11 -12 -12 -12 -12 -12 -12 -12 -12 -12 -12 -12 -12 -12 -12 -13 -12 -12 -13 -13 -13 -13 -13 -13 -13 -13 -13 -13 -13 -13 -13 -13 -13 -13 -13 -13 -13 -13 -13 -13 -14 -14 -14 -14 -14 -14 -14 -14 -14 -14 -14
-11 -11 -11 -12 -12 -12 -11 -11 -11 -11 -11 -12 -12 -12 -12 -12 -12 -12 -12 -12 -12 -13 -13 -12 -12 -13 -12 -12 -13 -13 -13 -13 -13 -13 -13 -13 -14 -14 -13 -13 -13 -13 -13 -13 -13 -13 -13 -13 -13 -13 -13 -13 -14 -14 -14 -14 -14 -14 -14 -14 -14 -14
-11 -11 -12 -12 -12 -12 -12 -12 -12 -11 -11 -11 -12 -12 -12 -12 -12 -12 -13 -12 -13 -13 -13 -13 -13 -13 -12 -12 -13 -13 -13 -13 -13 -13 -13 -13 -13 -13 -13 -13 -13 -13 -13 -13 -13 -13 -13 -13 -13 -13 -13 -13 -14 -14 -14 -14 -14 -14 -14 -14 -14 -14
-11 -11 -12 -12 -12 -12 -12 -12 -11 -11 -11 -12 -12 -13 -13 -12 -12 -13 -13 -12 -13 -13 -12 -12 -13 -13 -13 -13 -13 -13 -13 -13 -13 -13 -13 -13 -13 -13 -13 -13 -13 -13 -13 -13 -13 -13 -13 -13 -13 -13 -13 -13 -13 -14 -13 -13 -14 -14 -14 -14 -14 -14
-11 -11 -11 -12 -12 -12 -12 -12 -11 -11 -11 -12 -13 -13 -13 -13 -12 -12 -12 -12 -13 -13 -13 -12 -12 -13 -13 -13 -13 -13 -13 -13 -13 -13 -13 -13 -13 -13 -13 -13 -13 -13 -13 -13 -13 -13 -13 -13 -13 -13 -13 -13 -13 -13 -13 -13 -14 -14 -14 -14 -14 -14
-12 -12 -12 -12 -12 -12 -12 -12 -12 -11 -12 -13 -13 -13 -13 -13 -13 -12 -12 -13 -13 -13 -13 -12 -12 -12 -12 -12 -13 -13 -13 -13 -13 -13 -13 -13 -13 -13 -13 -13 -13 -13 -13 -13 -13 -13 -13 -13 -13 -13 -13 -13 -13 -13 -13 -13 -14 -14 -14 -14 -14 -14
-12 -12 -12 -12 -12 -12 -12 -12 -12 -12 -13 -13 -13 -13 -13 -13 -13 -13 -13 -13 -13 -13 -12 -12 -12 -12 -12 -12 -13 -13 -13 -13 -13 -13 -13 -13 -13 -13 -13 -13 -13 -13 -13 -13 -13 -13 -13 -13 -13 -13 -13 -13 -13 -13 -13 -13 -13 -14 -14 -14 -14 -14
-12 -13 -12 -12 -12 -12 -12 -12 -12 -13 -13 -13 -13 -13 -13 -13 -13 -13 -13 -13 -13 -12 -12 -12 -12 -12 -12 -13 -13 -13 -13 -13 -13 -13 -13 -13 -13 -13 -13 -13 -13 -14 -14 -14 -14 -13 -13 -13 -13 -13 -13 -13 -13 -13 -13 -13 -14 -14 -15 -14 -14 -14
-12 -12 -12 -12 -12 -12 -12 -12 -12 -13 -13 -13 -13 -13 -13 -13 -13 -13 -13 -13 -12 -12 -12 -12 -12 -12 -12 -13 -14 -13 -13 -13 -13 -13 -13 -13 -13 -13 -13 -13 -13 -14 -14 -14 -14 -13 -13 -13 -14 -13 -13 -13 -13 -13 -13 -13 -14 -15 -14 -14 -14 -14
-12 -12 -12 -12 -13 -13 -13 -12 -12 -12 -13 -13 -13 -13 -13 -13 -13 -13 -13 -12 -13 -13 -13 -13 -12 -12 -12 -13 -14 -13 -13 -14 -13 -13 -13 -13 -13 -13 -13 -13 -13 -14 -13 -13 -13 -14 -13 -14 -14 -14 -13 -13 -13 -13 -13 -13 -14 -14 -14 -14 -14 -14
-12 -12 -12 -12 -13 -13 -13 -13 -12 -12 -13 -13 -13 -13 -13 -13 -13 -13 -13 -13 -13 -13 -13 -13 -12 -12 -12 -13 -13 -13 -13 -14 -13 -13 -13 -13 -13 -13 -13 -13 -13 -13 -13 -13 -13 -14 -14 -14 -14 -14 -13 -13 -13 -13 -13 -13 -14 -14 -14 -14 -14 -14
-12 -12 -12 -12 -13 -14 -13 -13 -12 -12 -13 -13 -13 -13 -13 -13 -13 -13 -13 -13 -13 -13 -13 -13 -13 -12 -13 -13 -13 -13 -14 -14 -14 -14 -13 -13 -13 -13 -13 -13 -13 -13 -13 -13 -14 -14 -14 -14 -14 -14 -14 -14 -14 -14 -13 -13 -14 -14 -14 -14 -14 -14
-13 -13 -13 -12 -13 -13 -13 -13 -13 -13 -13 -13 -13 -13 -13 -13 -13 -14 -14 -14 -14 -13 -13 -13 -13 -13 -13 -13 -13 -14 -14 -13 -14 -14 -13 -13 -13 -13 -13 -13 -13 -13 -13 -13 -14 -14 -14 -14 -14 -14 -14 -14 -14 -14 -14 -14 -14 -14 -14 -14 -14 -14
-13 -13 -13 -13 -13 -13 -13 -13 -13 -13 -13 -13 -13 -13 -13 -14 -14 -14 -14 -14 -14 -13 -13 -13 -13 -13 -13 -13 -13 -13 -13 -13 -13 -13 -13 -13 -13 -13 -13 -13 -13 -13 -13 -14 -14 -14 -14 -14 -14 -14 -15 -15 -15 -14 -14 -14 -14 -14 -14 -14 -14 -14
-13 -13 -13 -13 -13 -13 -13 -13 -13 -13 -13 -13 -13 -13 -13 -13 -13 -13 -13 -13 -13 -13 -13 -13 -13 -13 -13 -13 -13 -13 -13 -13 -13 -13 -13 -13 -13 -13 -13 -13 -13 -13 -13 -14 -14 -14 -14 -14 -14 -14 -15 -15 -15 -14 -14 -14 -14 -14 -14 -14 -14 -14
-12 -13 -13 -13 -13 -13 -13 -13 -13 -13 -13 -13 -13 -13 -13 -13 -13 -13 -13 -13 -13 -13 -13 -13 -13 -13 -13 -13 -13 -13 -13 -13 -13 -13 -13 -13 -13 -13 -13 -13 -13 -13 -13 -13 -14 -14 -14 -14 -14 -14 -15 -15 -15 -14 -14 -14 -14 -14 -14 -14 -14 -14
-12 -13 -13 -13 -13 -13 -13 -14 -13 -13 -13 -13 -13 -13 -13 -13 -13 -13 -14 -14 -14 -14 -14 -13 -13 -13 -13 -13 -13 -13 -13 -13 -13 -13 -13 -13 -13 -13 -13 -13 -13 -13 -13 -13 -13 -14 -14 -14 -14 -14 -15 -15 -15 -14 -14 -14 -14 -14 -14 -14 -14 -14
-13 -13 -13 -13 -13 -13 -14 -14 -13 -13 -13 -13 -13 -13 -13 -14 -14 -14 -14 -14 -14 -14 -14 -14 -13 -13 -13 -13 -13 -13 -13 -13 -13 -14 -13 -13 -13 -13 -14 -13 -13 -13 -13 -13 -13 -14 -14 -14 -14 -14 -14 -15 -15 -14 -14 -14 -14 -14 -14 -14 -14 -14
-13 -13 -13 -13 -14 -14 -14 -14 -14 -13 -13 -13 -13 -14 -14 -14 -14 -14 -14 -14 -14 -14 -14 -14 -14 -14 -13 -13 -13 -14 -14 -14 -14 -14 -14 -14 -13 -13 -14 -14 -13 -13 -13 -13 -13 -14 -14 -14 -14 -14 -14 -14 -15 -14 -14 -14 -14 -14 -14 -14 -14 -14
-13 -13 -14 -14 -14 -14 -14 -14 -14 -14 -14 -14 -14 -14 -14 -14 -14 -14 -14 -14 -14 -14 -14 -14 -14 -14 -14 -14 -14 -14 -14 -14 -14 -14 -14 -14 -14 -14 -14 -14 -13 -13 -13 -13 -13 -14 -14 -14 -14 -14 -14 -14 -14 -14 -14 -14 -14 -14 -14 -14 -14 -14
-14 -14 -14 -14 -14 -14 -14 -14 -14 -14 -14 -14 -14 -14 -14 -14 -14 -15 -15 -15 -15 -15 -14 -14 -14 -14 -14 -14 -14 -14 -14 -14 -14 -14 -14 -14 -14 -14 -13 -13 -13 -13 -13 -13 -14 -14 -14 -14 -14 -14 -14 -14 -14 -14 -14 -14 -14 -14 -15 -14 -14 -14
-14 -14 -14 -14 -14 -14 -14 -14 -14 -14 -14 -15 -15 -15 -15 -15 -15 -15 -15 -15 -15 -15 -15 -14 -14 -14 -14 -14 -14 -14 -14 -14 -14 -14 -14 -14 -14 -14 -13 -13 -13 -13 -13 -13 -14 -14 -14 -14 -14 -14 -14 -14 -14 -14 -14 -14 -14 -14 -14 -15 -15 -14
-14 -14 -14 -14 -14 -14 -14 -15 -15 -14 -15 -15 -15 -15 -15 -15 -15 -15 -15 -15 -15 -15 -15 -15 -14 -14 -14 -14 -14 -14 -14 -14 -14 -14 -14 -14 -14 -14 -14 -13 -13 -13 -13 -14 -14 -14 -14 -14 -14 -14 -14 -14 -14 -14 -14 -14 -14 -14 -14 -15 -15 -14
-14 -14 -14 -14 -15 -15 -14 -15 -15 -14 -14 -15 -15 -15 -15 -15 -15 -15 -15 -15 -15 -15 -15 -15 -15 -15 -14 -14 -14 -14 -14 -14 -14 -14 -14 -14 -14 -14 -14 -13 -13 -13 -13 -13 -14 -14 -14 -14 -14 -14 -14 -14 -14 -14 -14 -14 -14 -14 -14 -14 -14 -14
-14 -14 -14 -14 -15 -15 -15 -15 -15 -14 -14 -15 -15 -15 -15 -15 -15 -15 -15 -15 -15 -15 -15 -15 -15 -14 -14 -14 -14 -14 -14 -14 -14 -14 -14 -14 -14 -14 -14 -13 -13 -13 -14 -14 -14 -14 -14 -14 -14 -14 -14 -14 -14 -14 -14 -14 -15 -15 -15 -15 -15 -14
-14 -14 -14 -14 -15 -15 -15 -15 -15 -15 -14 -15 -15 -15 -14 -14 -14 -15 -15 -15 -15 -15 -15 -14 -14 -14 -14 -14 -14 -14 -14 -14 -14 -14 -14 -14 -14 -14 -13 -13 -13 -13 -14 -14 -14 -14 -14 -14 -14 -14 -14 -14 -14 -15 -15 -15 -15 -15 -15 -15 -15 -15
-14 -14 -14 -15 -15 -14 -14 -14 -14 -14 -14 -15 -15 -15 -14 -14 -15 -15 -15 -15 -15 -14 -14 -14 -14 -14 -14 -14 -14 -14 -14 -14 -14 -14 -14 -14 -14 -14 -13 -13 -13 -14 -14 -14 -14 -14 -14 -14 -14 -14 -14 -14 -15 -15 -15 -15 -15 -15 -15 -15 -14 -15
-15 -15 -15 -15 -15 -14 -14 -14 -14 -14 -14 -15 -15 -15 -15 -15 -14 -14 -14 -14 -14 -14 -14 -14 -14 -14 -14 -14 -14 -14 -14 -13 -14 -14 -14 -14 -14 -14 -14 -14 -14 -14 -14 -14 -14 -14 -14 -14 -14 -14 -14 -15 -15 -15 -15 -15 -15 -15 -15 -15 -14 -15
-15 -15 -14 -14 -14 -15 -15 -15 -15 -15 -15 -15 -15 -15 -15 -15 -14 -14 -14 -14 -14 -14 -14 -14 -14 -14 -14 -14 -14 -14 -14 -14 -14 -14 -14 -14 -14 -14 -14 -14 -14 -14 -14 -14 -14 -14 -14 -14 -14 -14 -15 -15 -15 -15 -15 -15 -15 -15 -15 -15 -15 -15
-14 -15 -15 -15 -15 -15 -15 -15 -15 -15 -15 -15 -15 -15 -15 -15 -15 -14 -14 -14 -14 -14 -14 -14 -14 -14 -14 -14 -14 -14 -14 -14 -14 -14 -14 -14 -14 -14 -14 -14 -14 -14 -14 -14 -14 -15 -14 -14 -14 -15 -15 -15 -15 -15 -15 -15 -15 -15 -15 -15 -15 -15
-14 -15 -15 -15 -15 -15 -15 -15 -15 -15 -15 -15 -15 -15 -15 -15 -15 -14 -14 -14 -14 -14 -14 -14 -14 -14 -14 -14 -14 -14 -14 -14 -14 -14 -14 -14 -14 -14 -14 -14 -14 -14 -14 -14 -14 -14 -15 -15 -15 -15 -15 -15 -15 -15 -15 -15 -15 -15 -15 -15 -15 -15
-15 -15 -15 -15 -15 -15 -15 -15 -15 -15 -15 -15 -15 -15 -15 -15 -15 -15 -14 -14 -14 -14 -14 -14 -14 -14 -14 -14 -14 -14 -14 -14 -14 -14 -14 -14 -14 -14 -14 -14 -14 -14 -14 -14 -14 -14 -14 -15 -15 -15 -15 -15 -15 -15 -15 -15 -15 -15 -15 -15 -15 -15
-15 -15 -15 -15 -15 -15 -15 -15 -15 -15 -16 -16 -15 -15 -15 -15 -15 -15 -14 -14 -14 -14 -14 -14 -14 -14 -14 -14 -14 -14 -14 -14 -14 -14 -14 -14 -14 -14 -15 -15 -15 -15 -14 -14 -14 -14 -14 -14 -15 -15 -15 -15 -15 -15 -15 -15 -15 -15 -15 -15 -15 -15
Height
5809 5810 5811 5810 5809 5808 5810 5811 5811 5810 5810 5809 5809 5808 5807 5807 5807 5806 5806 5805 5805 5805 5805 5806 5808 5810 5812 5812 5813 5814 5814 5815 5815 5815 5816 5816 5816 5817 5817 5818 5818 5819 5819 5819 5820 5820 5821 5821 5822 5822 5823 5823 5824 5824 5825 5826 5828 5831 5833 5831 5831 5832
5806 5808 5809 5809 5807 5806 5809 5809 5808 5808 5808 5807 5807 5806 5805 5805 5804 5804 5803 5803 5804 5804 5804 5806 5809 5811 5811 5810 5811 5812 5813 5813 5813 5813 5813 5813 5814 5814 5815 5816 5816 5817 5817 5817 5817 5818 5819 5819 5820 5821 5821 5822 5822 5822 5823 5825 5828 5831 5831 5829 5830 5831
5804 5806 5807 5806 5804 5805 5806 5806 5805 5805 5805 5805 5804 5804 5803 5802 5802 5802 5801 5801 5802 5803 5804 5808 5810 5809 5809 5809 5810 5811 5811 5811 5810 5811 5811 5811 5811 5813 5814 5814 5815 5815 5815 5815 5816 5816 5817 5817 5818 5819 5819 5820 5821 5821 5821 5824 5827 5830 5829 5828 5829 5830
5802 5804 5804 5803 5802 5802 5803 5803 5803 5803 5803 5802 5802 5801 5800 5799 5800 5800 5800 5801 5802 5803 5804 5807 5807 5807 5808 5809 5809 5809 5808 5808 5808 5809 5809 5810 5811 5812 5813 5813 5814 5814 5814 5814 5814 5815 5816 5816 5817 5818 5818 5819 5819 5819 5820 5822 5826 5828 5827 5826 5828 5829
5800 5801 5800 5800 5800 5799 5800 5800 5801 5801 5801 5800 5799 5798 5798 5798 5799 5800 5801 5801 5802 5803 5804 5806 5806 5806 5807 5807 5807 5806 5807 5807 5808 5808 5808 5809 5810 5811 5811 5812 5812 5812 5812 5812 5813 5814 5815 5815 5816 5816 5817 5817 5818 5818 5818 5821 5825 5827 5825 5824 5826 5827
5798 5797 5797 5798 5798 5798 5798 5799 5799 5799 5799 5797 5797 5796 5797 5799 5799 5800 5801 5801 5802 5803 5805 5805 5806 5806 5807 5806 5805 5806 5806 5807 5806 5806 5807 5807 5809 5809 5809 5809 5810 5810 5810 5810 5811 5812 5813 5814 5814 5814 5815 5816 5816 5816 5817 5819 5823 5824 5823 5823 5824 5825
5797 5795 5796 5797 5797 5797 5797 5797 5798 5798 5797 5796 5796 5796 5797 5798 5798 5798 5798 5800 5802 5804 5805 5805 5806 5806 5806 5805 5805 5805 5805 5805 5805 5805 5805 5806 5807 5807 5807 5808 5807 5807 5807 5808 5808 5810 5811 5812 5812 5813 5813 5814 5814 5815 5815 5817 5821 5821 5820 5821 5823 5824
5795 5794 5793 5794 5795 5795 5795 5796 5797 5798 5797 5795 5796 5796 5796 5797 5796 5796 5796 5799 5802 5803 5804 5804 5804 5804 5804 5804 5804 5803 5803 5803 5804 5804 5804 5804 5805 5806 5807 5806 5806 5805 5806 5806 5807 5808 5809 5810 5811 5811 5811 5812 5812 5812 5813 5814 5818 5818 5818 5819 5821 5822
5794 5793 5792 5792 5793 5794 5794 5795 5795 5796 5796 5795 5796 5796 5795 5796 5796 5796 5797 5799 5801 5803 5803 5803 5803 5803 5803 5802 5802 5801 5800 5800 5801 5802 5802 5803 5803 5804 5805 5804 5804 5804 5805 5806 5806 5807 5809 5809 5810 5810 5810 5811 5811 5811 5811 5812 5814 5815 5815 5817 5818 5820
5793 5793 5792 5792 5794 5795 5795 5795 5794 5794 5794 5794 5795 5795 5795 5795 5796 5796 5797 5799 5801 5802 5803 5803 5803 5802 5801 5800 5800 5799 5798 5798 5799 5800 5800 5801 5801 5802 5802 5802 5803 5803 5804 5804 5805 5806 5808 5809 5809 5809 5809 5809 5810 5811 5811 5810 5811 5811 5812 5815 5817 5819
5792 5792 5792 5793 5794 5795 5795 5794 5793 5792 5792 5794 5794 5794 5794 5795 5795 5796 5797 5799 5801 5802 5802 5802 5802 5801 5800 5798 5798 5797 5797 5797 5798 5799 5799 5799 5800 5800 5801 5801 5802 5802 5802 5802 5803 5804 5806 5808 5809 5808 5808 5808 5809 5810 5810 5808 5809 5809 5812 5815 5817 5818
5791 5791 5792 5793 5794 5794 5794 5793 5792 5791 5791 5794 5793 5793 5794 5795 5796 5797 5799 5800 5801 5801 5800 5800 5800 5799 5798 5796 5796 5797 5797 5797 5798 5798 5799 5799 5799 5800 5800 5800 5800 5800 5801 5802 5802 5803 5804 5805 5807 5807 5806 5807 5807 5807 5807 5806 5807 5810 5812 5814 5815 5815
5791 5790 5790 5792 5792 5792 5793 5793 5792 5790 5791 5792 5793 5793 5794 5795 5797 5798 5799 5799 5798 5798 5797 5797 5797 5797 5795 5794 5795 5797 5797 5797 5797 5797 5797 5798 5798 5799 5800 5800 5800 5800 5801 5801 5802 5803 5803 5803 5804 5805 5805 5805 5806 5805 5805 5804 5806 5809 5811 5812 5812 5813
5790 5790 5789 5789 5790 5791 5792 5793 5793 5791 5791 5792 5793 5793 5794 5795 5796 5797 5797 5796 5796 5795 5795 5796 5796 5796 5794 5792 5793 5795 5795 5795 5795 5795 5796 5796 5797 5798 5799 5799 5799 5800 5800 5800 5801 5801 5802 5802 5802 5802 5804 5804 5804 5805 5804 5804 5805 5807 5809 5810 5811 5812
5788 5789 5789 5788 5787 5789 5792 5793 5794 5792 5791 5792 5793 5793 5794 5795 5795 5795 5795 5794 5794 5794 5794 5795 5795 5795 5794 5792 5792 5794 5794 5794 5794 5794 5794 5795 5796 5797 5798 5799 5799 5799 5799 5799 5800 5800 5801 5801 5800 5800 5801 5801 5802 5803 5804 5803 5804 5806 5808 5809 5810 5810
5786 5787 5788 5787 5787 5788 5791 5792 5793 5793 5792 5792 5793 5793 5793 5793 5793 5793 5793 5792 5793 5793 5793 5794 5794 5794 5794 5793 5792 5793 5794 5794 5793 5793 5794 5794 5795 5797 5798 5798 5798 5798 5797 5797 5798 5799 5799 5798 5798 5798 5799 5800 5801 5802 5803 5804 5803 5804 5806 5807 5808 5808
5785 5784 5785 5786 5786 5787 5788 5790 5791 5792 5791 5791 5792 5792 5791 5791 5792 5792 5792 5792 5792 5792 5792 5793 5793 5793 5793 5792 5791 5792 5794 5793 5793 5793 5794 5794 5795 5796 5797 5798 5798 5797 5797 5797 5798 5799 5798 5796 5796 5797 5798 5800 5801 5801 5802 5803 5803 5803 5804 5805 5806 5807
5785 5783 5783 5784 5784 5785 5786 5788 5789 5790 5790 5790 5791 5790 5790 5790 5790 5791 5790 5790 5790 5790 5790 5791 5791 5792 5792 5791 5790 5791 5793 5793 5793 5793 5794 5794 5795 5796 5797 5797 5798 5797 5797 5797 5797 5798 5797 5795 5795 5797 5798 5799 5799 5800 5801 5801 5801 5802 5802 5803 5804 5805
5784 5784 5783 5784 5784 5784 5785 5786 5788 5789 5789 5789 5789 5789 5789 5790 5789 5788 5788 5788 5788 5788 5788 5789 5789 5790 5791 5790 5790 5791 5792 5792 5792 5793 5794 5794 5795 5796 5796 5797 5797 5797 5796 5797 5797 5797 5797 5795 5795 5797 5797 5798 5798 5798 5799 5800 5800 5800 5801 5801 5802 5803
5782 5783 5783 5783 5783 5784 5784 5786 5787 5788 5787 5787 5788 5788 5788 5788 5787 5787 5786 5787 5787 5787 5788 5788 5789 5790 5791 5790 5790 5791 5792 5792 5792 5792 5793 5794 5794 5795 5796 5796 5796 5796 5796 5796 5796 5796 5796 5795 5795 5796 5796 5797 5797 5798 5798 5799 5799 5799 5799 5800 5801 5801
5779 5780 5780 5780 5781 5782 5783 5784 5785 5785 5786 5786 5787 5786 5785 5785 5785 5785 5786 5786 5787 5787 5788 5788 5789 5790 5791 5790 5790 5791 5791 5791 5791 5791 5792 5793 5793 5794 5794 5795 5795 5795 5795 5795 5796 5795 5795 5795 5795 5795 5795 5796 5796 5797 5798 5798 5798 5798 5798 5799 5800 5800
5776 5777 5777 5778 5779 5780 5781 5782 5783 5783 5784 5785 5784 5784 5783 5783 5784 5784 5785 5786 5786 5787 5787 5787 5788 5789 5790 5790 5790 5790 5790 5791 5790 5790 5791 5792 5793 5793 5793 5794 5794 5794 5793 5794 5794 5794 5795 5795 5794 5794 5795 5796 5796 5796 5797 5798 5798 5798 5798 5798 5798 5798
5773 5773 5774 5775 5776 5778 5779 5780 5781 5781 5782 5782 5782 5782 5782 5782 5783 5784 5785 5786 5786 5786 5786 5786 5787 5787 5788 5789 5789 5789 5790 5790 5790 5790 5790 5791 5791 5792 5792 5793 5793 5792 5792 5792 5792 5793 5793 5794 5794 5794 5794 5795 5796 5796 5796 5797 5797 5797 5797 5797 5797 5797
5769 5770 5771 5772 5774 5776 5777 5779 5778 5778 5779 5780 5781 5781 5781 5781 5782 5784 5784 5785 5785 5785 5785 5785 5785 5785 5786 5786 5787 5788 5789 5789 5789 5790 5790 5790 5790 5791 5791 5791 5791 5791 5791 5792 5792 5791 5792 5792 5793 5793 5793 5794 5795 5795 5795 5796 5796 5796 5796 5796 5796 5795
5767 5768 5769 5770 5772 5773 5775 5777 5776 5775 5777 5779 5780 5780 5780 5781 5781 5782 5783 5783 5783 5783 5783 5783 5783 5783 5783 5784 5785 5786 5786 5787 5788 5789 5790 5790 5790 5790 5790 5790 5789 5789 5789 5790 5790 5790 5790 5790 5791 5792 5792 5792 5793 5793 5793 5794 5794 5794 5795 5795 5795 5794
5766 5766 5767 5768 5769 5771 5773 5774 5774 5775 5777 5779 5779 5779 5779 5780 5780 5781 5781 5781 5782 5782 5782 5782 5782 5782 5782 5782 5783 5784 5784 5785 5786 5787 5788 5789 5790 5790 5789 5789 5788 5788 5788 5788 5789 5789 5788 5789 5790 5791 5791 5790 5791 5792 5792 5792 5792 5793 5793 5794 5793 5793
5768 5768 5768 5768 5769 5771 5771 5772 5773 5775 5777 5778 5778 5778 5778 5779 5779 5780 5780 5781 5781 5781 5782 5782 5781 5781 5781 5781 5782 5782 5783 5783 5784 5785 5786 5787 5787 5788 5788 5787 5787 5787 5786 5786 5786 5787 5787 5787 5788 5789 5789 5789 5789 5789 5790 5790 5791 5791 5792 5792 5792 5792
5768 5768 5768 5769 5770 5771 5771 5773 5775 5775 5776 5776 5777 5777 5777 5778 5779 5779 5780 5781 5781 5782 5782 5782 5782 5781 5781 5781 5781 5782 5782 5782 5783 5783 5784 5784 5784 5785 5785 5785 5784 5784 5784 5784 5784 5785 5785 5785 5786 5786 5787 5787 5787 5787 5788 5789 5789 5790 5791 5791 5790 5791
5766 5766 5767 5769 5771 5771 5772 5774 5774 5774 5775 5775 5775 5776 5777 5778 5779 5779 5780 5780 5781 5781 5782 5782 5782 5781 5781 5780 5780 5781 5781 5781 5782 5782 5782 5782 5782 5783 5782 5782 5782 5782 5782 5782 5782 5782 5783 5783 5783 5784 5785 5785 5786 5786 5787 5787 5788 5788 5789 5789 5789 5789
5764 5765 5766 5767 5769 5769 5770 5772 5773 5773 5774 5774 5774 5776 5777 5778 5778 5779 5779 5780 5780 5780 5781 5781 5781 5780 5780 5779 5779 5779 5779 5780 5780 5781 5781 5781 5781 5781 5780 5780 5780 5780 5780 5780 5780 5780 5781 5781 5782 5782 5782 5783 5783 5784 5785 5786 5786 5787 5787 5786 5787 5787
5762 5764 5766 5766 5767 5767 5767 5770 5773 5772 5773 5773 5774 5775 5776 5777 5777 5778 5778 5779 5779 5779 5779 5779 5779 5779 5778 5778 5777 5777 5777 5778 5778 5779 5779 5779 5779 5779 5778 5778 5778 5778 5778 5778 5778 5778 5779 5780 5780 5780 5780 5781 5781 5781 5782 5783 5784 5784 5785 5785 5785 5786
5762 5764 5765 5765 5766 5766 5767 5769 5770 5770 5771 5772 5773 5774 5775 5776 5776 5777 5777 5777 5778 5778 5778 5778 5778 5777 5777 5776 5776 5775 5775 5775 5776 5776 5776 5777 5777 5777 5776 5776 5776 5776 5776 5777 5777 5777 5777 5778 5778 5778 5777 5778 5778 5778 5779 5780 5781 5781 5782 5782 5783 5784
5761 5762 5763 5763 5763 5764 5766 5767 5768 5769 5770 5771 5772 5772 5773 5774 5774 5775 5775 5776 5777 5777 5777 5776 5776 5776 5775 5774 5774 5774 5774 5774 5774 5774 5774 5774 5775 5775 5774 5774 5774 5774 5774 5774 5774 5774 5774 5775 5775 5775 5775 5775 5776 5775 5776 5777 5778 5779 5779 5780 5781 5782
5757 5758 5759 5760 5761 5762 5763 5764 5765 5767 5768 5770 5770 5771 5771 5772 5772 5773 5774 5774 5775 5775 5775 5775 5775 5774 5774 5773 5773 5773 5772 5772 5772 5772 5773 5773 5773 5773 5772 5772 5772 5772 5772 5772 5772 5772 5771 5771 5772 5772 5773 5773 5773 5774 5774 5776 5777 5777 5777 5777 5778 5779
5754 5755 5757 5758 5759 5760 5760 5761 5762 5763 5765 5767 5769 5769 5770 5770 5771 5772 5772 5773 5773 5773 5773 5773 5773 5773 5773 5772 5772 5772 5771 5771 5771 5771 5771 5771 5771 5771 5771 5770 5770 5770 5770 5769 5769 5769 5769 5769 5770 5770 5771 5771 5771 5772 5773 5774 5775 5775 5775 5776 5776 5777
5753 5755 5756 5757 5757 5758 5758 5759 5759 5761 5762 5764 5767 5768 5768 5769 5770 5771 5771 5771 5771 5771 5771 5771 5771 5771 5771 5771 5771 5770 5770 5770 5769 5769 5769 5770 5770 5770 5769 5769 5769 5768 5768 5768 5768 5768 5768 5768 5769 5769 5769 5769 5769 5770 5770 5771 5772 5773 5773 5774 5774 5775
5753 5754 5755 5755 5755 5756 5756 5757 5757 5758 5760 5762 5764 5766 5766 5767 5768 5769 5769 5770 5770 5769 5769 5769 5769 5769 5769 5769 5769 5769 5769 5768 5768 5768 5768 5768 5768 5768 5768 5768 5768 5767 5767 5767 5767 5767 5767 5768 5768 5768 5768 5768 5768 5768 5768 5769 5770 5770 5771 5772 5772 5773
Wind_Speed
18 17 18 21 24 20 15 13 14 15 13 13 13 15 16 18 21 23 24 28 33 33 32 31 30 22 15 13 14 15 16 16 16 16 15 15 15 15 15 15 15 15 15 15 15 15 15 16 17 19 20 20 20 20 20 19 17 13 10 14 15 12
21 20 20 22 21 18 17 16 16 15 13 12 14 15 16 18 21 22 22 26 32 32 28 25 22 16 13 14 13 13 14 15 16 16 16 16 15 15 15 15 15 16 16 16 16 16 16 17 17 19 21 21 22 22 22 20 16 12 12 16 15 14
21 19 20 21 19 18 18 17 17 15 14 13 14 15 15 18 19 19 21 27 30 30 25 19 16 15 14 13 11 12 13 14 16 16 17 17 16 16 16 16 16 17 17 17 17 16 17 17 17 19 21 22 23 23 23 21 16 12 14 16 16 15
18 18 20 21 20 19 19 19 18 16 15 13 13 14 16 17 17 18 21 25 26 24 22 17 16 16 14 12 11 12 13 15 17 17 18 18 17 16 16 16 16 17 17 17 17 16 16 16 17 18 20 22 23 24 24 21 17 13 16 18 17 17
20 21 21 21 21 20 20 19 17 15 14 12 13 16 17 15 15 17 19 20 20 19 18 16 16 15 12 10 11 12 13 14 16 18 18 18 17 16 16 15 15 16 17 18 17 16 16 15 16 18 19 21 23 24 24 22 17 15 18 20 19 18
21 22 20 20 19 20 20 17 15 15 14 14 16 16 14 12 12 13 14 15 16 15 13 13 15 14 12 12 13 13 13 14 15 16 17 18 17 16 15 13 13 14 16 17 17 17 16 15 16 17 18 20 22 24 24 22 18 17 20 21 20 19
19 19 18 19 19 18 18 16 14 13 15 16 14 12 11 11 10 9 11 13 14 13 10 10 11 12 13 14 15 15 15 14 13 13 14 14 14 15 14 12 13 13 14 15 15 16 15 15 15 16 18 19 21 23 24 22 19 19 21 21 20 19
18 19 19 19 18 17 15 14 13 12 15 14 11 11 11 12 12 12 13 13 12 11 11 13 15 16 15 15 14 14 15 14 13 13 14 13 12 13 12 11 11 13 14 14 13 14 14 15 14 15 16 18 20 21 22 21 19 20 21 21 20 19
18 18 18 17 16 16 14 14 13 13 14 13 10 11 10 10 12 14 15 14 12 11 12 15 18 18 17 16 14 13 13 14 14 14 14 14 14 13 13 13 12 11 11 12 13 13 14 14 13 13 14 16 17 17 20 21 20 21 21 20 19 19
17 16 15 15 14 13 13 14 13 13 13 9 8 9 9 11 12 14 15 14 12 11 11 13 15 15 15 14 13 12 12 13 14 14 13 12 13 13 13 14 12 9 9 10 13 13 12 13 12 12 12 13 14 14 18 20 20 21 20 18 18 18
15 13 14 13 11 11 13 13 13 12 10 8 8 10 11 12 12 12 12 11 10 9 9 10 11 12 12 13 12 11 10 11 12 12 11 10 10 11 11 12 10 8 9 10 12 12 11 12 13 11 9 10 11 12 15 17 19 20 19 17 17 17
13 12 13 13 11 11 11 12 12 11 9 8 11 11 10 10 10 10 9 8 8 8 8 8 9 10 11 12 11 10 9 10 9 8 9 9 9 9 9 9 9 8 9 9 10 11 11 11 13 11 9 9 10 11 13 16 18 17 16 15 16 17
14 13 14 14 13 12 12 12 13 12 10 9 10 8 8 9 8 8 8 8 8 9 9 9 9 10 11 11 9 8 8 8 8 7 8 9 8 7 7 7 7 7 8 9 9 10 11 11 11 11 9 8 9 10 12 16 17 15 14 16 16 15
14 14 14 13 12 13 13 11 12 14 12 9 8 7 8 9 8 8 8 7 7 8 7 8 8 8 10 11 9 8 9 8 7 7 8 8 7 7 7 7 6 7 7 8 8 9 11 10 10 10 8 7 9 9 11 14 15 13 13 14 15 13
13 14 15 13 11 10 12 12 13 13 11 9 8 9 9 9 9 8 7 6 6 6 6 6 6 6 8 11 11 10 9 8 7 7 8 8 8 7 7 6 5 5 4 7 8 8 10 9 9 10 9 9 8 8 10 13 13 12 12 13 13 14
14 14 14 14 12 11 13 14 13 12 12 11 11 10 9 9 8 6 5 5 5 5 5 5 5 6 7 10 11 9 8 8 8 8 8 8 8 8 8 6 5 4 3 7 8 7 9 8 8 10 11 10 7 7 10 12 12 12 13 13 13 14
14 15 14 13 13 12 13 13 11 10 11 11 10 10 9 8 7 5 4 4 5 5 5 6 6 6 7 10 11 10 10 10 9 9 8 7 7 8 9 7 5 4 4 5 5 7 9 9 9 9 10 8 7 8 10 12 12 12 12 13 12 13
12 13 14 12 11 12 12 12 10 8 7 9 10 10 10 8 6 5 5 6 6 7 8 8 8 8 9 10 11 11 11 11 10 10 9 8 7 7 8 7 7 6 5 4 6 8 9 7 7 8 7 6 7 9 10 11 11 12 12 13 13 12
11 11 13 13 13 13 12 12 12 10 10 13 13 11 10 9 8 8 8 8 9 9 10 10 10 10 10 11 11 11 10 10 10 10 10 10 9 8 7 8 7 6 6 7 8 9 10 7 6 8 7 5 6 8 9 10 11 12 12 12 13 12
14 14 15 15 16 14 12 13 14 14 14 15 14 13 12 11 9 8 8 9 9 9 10 10 10 11 11 11 11 11 10 10 10 10 10 11 10 9 8 8 7 6 7 9 9 8 8 8 7 8 7 4 5 7 9 10 11 11 12 11 11 11
17 17 17 18 18 16 15 16 16 15 15 16 17 15 13 11 10 9 8 9 9 10 10 10 11 11 11 11 12 11 10 9 10 10 10 10 10 10 9 8 9 9 9 9 9 8 8 9 9 7 6 6 7 7 9 10 10 11 11 11 11 10
19 19 20 19 20 18 17 19 19 17 17 19 17 14 12 12 11 9 8 9 10 10 10 11 11 11 11 12 12 11 9 8 8 9 9 9 9 9 9 9 10 11 10 10 9 8 8 9 9 9 8 8 8 8 9 10 9 10 10 11 11 10
21 21 22 21 22 21 20 21 22 20 19 19 17 14 13 12 11 9 8 8 9 10 10 11 11 11 12 12 12 11 9 8 7 7 8 8 8 9 9 10 10 11 11 11 10 9 9 8 9 10 11 9 8 8 8 9 9 9 9 10 11 11
23 23 22 22 23 23 21 21 22 20 19 18 15 13 13 13 12 9 8 8 9 10 10 10 11 11 11 12 12 11 10 9 6 6 7 7 8 9 10 10 11 11 11 11 11 11 10 10 10 11 11 10 9 9 9 10 9 8 9 10 10 11
23 22 22 23 24 23 21 21 23 21 19 17 15 14 14 13 12 10 8 8 9 10 10 10 10 10 10 10 11 11 11 10 7 6 5 6 7 9 10 11 12 12 12 12 12 12 12 12 11 11 11 11 10 10 10 10 9 9 9 9 10 11
22 21 21 22 23 22 21 23 25 23 19 16 13 13 13 13 12 10 10 9 9 10 9 9 9 8 9 9 9 10 11 11 10 9 7 7 7 8 10 11 12 13 13 13 13 13 12 12 11 10 10 11 11 11 10 11 11 11 10 10 10 11
19 19 20 21 22 21 21 23 22 19 16 14 12 12 13 12 11 11 11 10 10 10 10 10 9 9 9 8 9 9 10 11 12 12 12 11 11 10 11 12 12 13 13 14 14 13 12 12 11 10 10 10 11 12 11 12 12 11 11 11 12 13
17 19 19 20 20 19 22 23 20 16 13 12 12 13 13 12 11 11 11 10 9 9 10 10 10 11 11 11 10 10 11 11 12 13 14 15 16 15 15 15 14 13 14 15 16 15 15 13 12 11 11 11 11 12 12 12 12 12 12 12 14 13
17 17 18 18 18 20 24 24 18 13 12 12 12 12 12 11 11 10 10 9 8 8 9 10 11 12 13 13 14 13 13 13 14 14 15 16 17 18 18 17 16 15 14 15 16 17 17 15 14 13 13 11 11 12 12 12 12 12 12 13 14 12
15 15 15 15 17 19 23 22 14 10 11 11 11 11 11 11 11 10 9 8 8 8 10 11 12 13 14 15 15 16 16 16 16 16 16 17 17 18 18 18 18 17 15 15 16 18 18 17 16 14 13 12 11 11 11 10 10 11 12 13 13 11
13 11 10 11 14 16 17 19 14 13 12 10 10 11 12 12 11 10 9 9 9 10 11 12 13 13 14 15 16 17 17 18 17 17 17 17 17 17 18 18 18 17 16 15 16 18 18 18 16 14 13 11 10 11 11 10 10 11 12 13 13 12
13 10 10 12 14 14 14 17 16 15 12 11 11 11 12 12 12 11 10 10 11 11 12 12 12 14 15 16 17 17 18 18 17 17 16 15 15 15 16 16 16 16 15 15 15 17 17 17 15 13 11 10 10 11 11 10 11 12 12 13 13 12
15 13 14 15 15 15 15 19 19 16 15 14 12 12 13 13 13 12 12 12 12 12 11 11 11 13 15 16 16 16 16 16 15 15 15 14 14 14 14 14 14 14 14 14 14 14 14 14 13 11 9 8 9 10 10 11 11 12 14 13 12 12
17 16 15 15 15 15 15 17 19 19 18 17 15 14 14 15 15 14 14 13 13 12 11 10 11 13 14 15 15 15 15 14 14 14 13 13 13 14 14 14 14 14 14 14 14 13 12 11 11 10 8 8 9 9 9 11 11 12 14 14 13 13
18 16 14 14 14 14 14 16 18 20 19 18 16 16 15 16 17 16 15 14 12 11 9 9 10 12 13 14 15 15 14 14 14 15 14 14 14 14 13 13 14 14 14 15 14 13 12 10 10 9 9 8 8 8 8 9 10 11 12 13 13 14
19 17 15 15 15 14 14 16 18 18 17 16 16 16 17 18 17 18 17 15 12 10 9 9 10 11 12 14 15 15 15 14 14 15 15 15 15 15 14 14 13 14 14 14 14 14 12 11 10 10 9 8 7 7 7 8 9 9 10 11 11 12
18 17 16 16 16 15 14 15 17 17 17 18 18 17 19 19 19 19 19 16 13 11 9 9 10 11 12 13 14 15 15 15 15 15 15 15 15 15 15 14 14 13 13 14 14 14 13 12 11 10 9 9 8 8 8 8 8 8 9 9 10 11
Wind_Direction
295 293 291 294 293 285 279 284 286 286 280 267 259 260 261 262 267 270 272 275 268 260 256 248 246 251 255 256 259 266 271 273 274 273 274 274 274 273 271 268 265 264 261 258 257 255 251 249 246 244 245 246 248 250 250 250 252 256 261 261 260 259
293 293 291 292 287 279 284 287 285 287 278 265 259 256 259 264 269 271 271 271 262 253 246 242 247 251 247 254 263 269 270 270 270 270 270 268 266 265 263 261 260 258 256 255 253 250 248 245 243 242 243 244 246 249 251 252 252 255 258 258 261 262
293 292 292 291 286 285 288 286 285 286 280 268 255 252 259 264 266 268 268 267 260 251 246 247 255 247 244 256 262 263 263 265 267 268 268 265 263 262 261 259 256 255 254 253 252 251 248 245 242 242 242 243 245 248 250 251 249 251 256 258 261 263
297 294 290 288 288 290 288 287 288 286 282 264 243 249 260 265 269 272 270 266 259 252 250 253 251 245 251 262 262 263 264 266 269 272 272 271 270 268 264 259 256 255 254 254 255 254 252 250 247 245 245 245 246 248 250 250 247 250 256 257 259 262
297 294 291 291 290 291 289 288 287 285 278 256 245 255 259 264 268 267 266 262 257 255 256 253 249 255 265 264 265 269 268 271 274 275 275 274 273 269 263 260 259 257 257 257 257 257 255 254 253 250 249 247 247 248 250 250 247 246 251 254 257 259
295 293 295 295 291 289 289 287 284 280 270 257 259 258 255 258 254 256 261 258 258 261 263 258 258 268 277 275 276 275 274 279 281 279 276 271 269 264 259 257 258 258 258 259 257 257 256 254 252 251 250 248 247 248 250 250 246 244 247 250 253 255
290 289 291 290 288 289 289 287 284 280 273 264 259 258 257 248 239 252 263 261 265 273 273 271 276 284 287 286 285 281 277 280 288 292 284 277 274 270 269 263 256 254 256 258 259 258 255 251 249 248 248 248 248 249 251 250 245 244 246 247 248 251
277 281 285 286 289 290 288 284 280 278 274 264 255 261 255 241 242 256 265 269 275 282 279 278 287 293 294 293 290 285 281 282 294 299 293 286 281 279 280 277 270 264 259 257 258 259 258 255 250 246 246 248 250 253 254 253 247 244 243 243 245 248
265 274 281 283 285 289 289 283 275 271 265 254 248 249 241 246 259 266 274 278 283 290 286 284 289 293 294 295 295 294 292 296 297 297 294 286 281 279 277 279 284 280 271 262 256 260 266 263 256 251 249 249 251 256 259 256 249 244 242 243 246 248
264 272 277 278 281 285 285 279 274 270 259 244 237 241 253 273 278 280 281 280 289 300 294 291 296 298 299 302 304 304 304 303 295 293 295 288 285 286 281 278 281 285 283 271 259 258 264 268 267 260 254 251 252 257 259 257 251 246 246 246 249 251
270 279 279 277 280 281 279 277 273 261 245 243 262 270 277 286 290 292 288 284 294 303 298 299 305 305 308 311 310 308 306 301 294 292 295 294 297 299 293 284 281 282 278 273 264 253 253 263 268 264 261 258 256 258 260 258 252 249 250 250 251 253
282 291 280 274 273 271 269 269 267 255 246 262 275 276 278 283 290 297 292 284 290 302 311 317 319 317 312 306 302 301 300 297 295 297 298 297 300 308 303 289 284 282 277 278 273 255 244 250 259 260 265 269 264 262 262 260 256 253 256 254 250 250
280 285 280 274 268 264 261 259 258 258 265 272 268 267 270 270 278 291 292 293 307 320 328 331 331 329 317 301 292 295 297 300 301 303 304 296 299 309 303 294 290 287 281 277 272 256 242 244 253 254 259 268 266 265 262 259 259 261 258 254 255 257
275 278 278 270 262 262 259 252 250 257 265 263 259 266 268 265 275 291 301 311 321 326 330 331 331 331 317 298 290 297 301 310 315 313 310 304 308 309 298 298 302 302 293 280 270 252 243 243 240 240 249 254 253 264 269 265 263 265 262 261 266 269
282 279 272 260 254 258 254 247 248 252 248 243 259 270 267 268 282 298 308 312 314 316 319 320 319 319 309 295 291 296 300 306 312 314 315 314 317 312 301 301 310 320 309 293 282 241 233 235 221 224 233 235 246 266 269 270 273 276 278 278 275 270
290 284 273 259 255 258 255 252 252 249 241 247 264 267 271 283 294 305 305 302 302 300 297 297 300 300 295 290 291 296 300 304 311 315 316 317 318 312 305 297 305 329 318 301 289 234 222 221 217 226 223 225 252 268 260 265 276 283 286 285 282 273
298 293 281 265 262 269 264 260 267 264 252 256 261 263 282 294 289 279 274 281 284 287 291 291 291 291 289 288 292 299 305 310 317 320 318 315 311 309 307 296 289 296 301 301 270 239 235 215 218 234 221 220 250 265 265 270 276 281 283 284 284 278
297 295 283 263 261 276 272 269 279 275 262 271 272 275 287 286 277 279 284 290 296 299 301 300 299 298 295 291 294 302 307 312 315 316 318 312 301 301 304 297 287 280 286 273 225 246 265 237 229 244 229 228 252 270 279 280 279 279 279 279 279 278
283 286 278 256 256 270 269 265 268 269 278 285 282 277 275 271 281 295 298 299 301 300 297 297 298 298 297 292 291 297 302 305 307 309 312 310 304 301 301 299 294 282 276 266 245 257 275 262 249 254 247 247 266 281 284 282 281 280 280 280 279 278
273 276 272 260 259 264 263 261 262 270 282 281 272 264 263 266 275 283 288 294 295 296 295 293 292 291 290 286 286 290 293 296 299 302 304 309 310 308 306 301 300 288 267 267 264 265 272 264 260 263 262 276 287 285 285 284 283 281 281 281 281 281
266 267 267 263 260 259 261 259 259 270 277 269 263 262 266 271 273 277 286 294 296 298 299 295 292 290 285 282 285 289 292 293 293 297 301 305 308 310 311 304 301 293 271 268 267 261 264 263 264 271 277 291 289 284 288 287 282 282 284 282 280 280
260 259 259 258 256 253 254 254 255 263 268 264 263 266 269 272 274 280 287 294 299 301 301 299 296 292 289 288 288 290 293 293 292 298 301 301 302 305 306 301 298 292 278 275 273 267 267 265 266 272 278 287 287 284 288 284 280 282 283 282 281 281
253 253 253 253 252 249 247 252 254 255 261 264 262 264 269 273 277 284 291 295 298 299 299 299 297 296 295 294 292 293 296 297 302 305 305 304 301 298 297 294 291 288 283 283 284 281 278 274 272 271 271 274 276 280 284 281 274 275 280 281 281 279
247 249 250 251 252 252 251 255 254 251 258 262 261 267 273 278 283 290 294 294 293 295 297 296 296 295 295 296 295 295 296 298 305 310 314 314 307 301 294 290 287 284 284 285 285 282 276 267 264 263 262 261 261 265 273 276 270 270 280 281 280 277
245 248 251 252 253 255 256 257 254 252 256 259 261 269 274 278 285 290 289 287 288 291 297 299 298 294 291 293 294 295 296 295 294 296 306 313 309 304 295 289 289 287 285 283 279 277 272 263 258 259 261 261 261 260 264 266 264 270 277 277 279 279
247 250 254 254 254 257 259 257 251 247 249 254 259 266 271 276 281 284 283 280 284 289 296 303 304 301 295 291 290 292 293 292 290 285 287 295 300 301 296 291 288 287 286 283 278 275 273 268 264 264 266 268 267 264 262 261 260 266 270 271 275 275
253 258 260 258 259 260 260 256 246 239 244 252 260 264 266 270 272 275 276 276 282 288 295 304 310 311 306 301 297 293 292 291 289 286 285 288 291 294 299 298 292 288 287 286 282 278 274 272 270 267 268 269 267 266 264 261 261 263 265 267 269 271
258 262 262 263 265 263 263 259 246 240 248 252 256 260 261 262 264 267 271 277 284 290 296 304 309 313 311 308 306 301 299 296 293 291 289 288 289 292 298 300 297 293 289 287 284 280 276 275 274 273 272 268 263 263 263 262 263 265 265 264 266 268
263 262 261 264 263 264 267 258 241 238 246 246 251 258 260 262 264 267 273 279 286 292 298 304 307 310 311 309 307 304 301 298 295 293 292 290 289 290 293 295 294 293 289 286 283 280 277 274 273 273 274 271 262 260 260 262 265 265 266 265 266 265
261 263 269 273 265 267 264 248 243 258 253 248 254 260 263 265 264 263 270 278 288 296 300 304 308 310 310 310 307 305 301 297 293 290 288 288 288 289 289 290 288 286 284 283 279 277 275 272 271 271 272 272 266 259 255 259 264 265 265 263 266 267
253 260 278 287 281 276 251 235 258 280 266 259 262 263 264 263 260 261 271 284 292 301 305 306 309 310 311 310 306 304 302 299 296 293 289 285 286 287 287 286 282 277 276 276 272 269 268 268 267 268 271 273 273 268 265 269 273 268 262 260 269 278
248 259 277 291 297 291 256 247 270 279 272 267 258 260 263 259 261 267 275 286 291 300 306 307 313 318 318 314 308 304 301 300 301 301 298 291 288 289 289 286 280 272 269 269 264 261 260 261 262 267 275 279 279 278 278 284 282 275 270 267 275 287
261 276 287 296 302 297 277 271 276 281 285 278 260 259 262 260 266 271 274 282 290 298 303 306 316 324 327 325 319 310 303 301 303 306 306 299 295 295 295 292 284 277 272 269 265 259 257 258 261 266 274 280 281 285 289 291 286 283 283 279 283 291
281 291 298 299 298 295 287 278 274 278 286 284 269 260 261 265 269 272 273 277 284 292 297 303 313 322 330 332 328 321 312 306 305 308 308 304 301 300 300 297 292 287 281 277 272 264 259 259 261 263 268 272 276 284 291 292 290 289 289 289 292 293
287 293 298 296 293 291 286 278 274 277 280 279 272 264 263 269 271 272 273 273 278 285 289 297 309 319 327 330 330 326 319 313 308 306 304 302 302 302 302 301 298 293 288 283 276 269 262 258 257 259 262 269 273 282 292 292 292 292 292 294 296 293
282 283 286 285 285 289 288 283 278 277 274 268 269 271 268 269 272 273 273 272 274 277 283 293 306 318 324 326 328 326 322 318 312 308 304 299 297 298 299 299 297 294 289 283 278 271 265 260 259 259 261 267 273 280 290 292 293 295 294 295 295 292
276 275 279 281 282 288 295 296 286 277 269 261 264 274 274 270 269 272 273 271 269 269 275 288 303 315 320 322 325 325 323 320 315 311 307 301 296 292 292 291 289 287 283 279 276 272 269 266 265 265 266 270 274 278 286 290 294 296 294 293 292 290